[[{"header":{"parameterUnit":"m.s-1","parameterCategory":2,"la1":30.2991,"la2":30.254,"lo1":-89.0895,"lo2":-89.0444,"dy":0.0017,"dx":0.0017,"nx":28,"ny":28,"refTime":"2023-03-21T21:00:00:Z","depth":"0","parameterNumber":2,"parameterNumberName":"U-component_of_CURRENTS"},"data":[0,0,0,0,0,0,0,0,0,0,0,0,0,0,0,0,0,0,0,0,0,0,0,0,0,0,0,0,0,0,0,0,0,0,0,0,0,0,0,0,0,0,0,0,0,0,0,0,0,0,0,0,0,0,0,0,0,0,0.177,0.177,0,0.1767,0.1766,0.1766,0.1757,0.1757,0.1757,0.1757,0.1746,0.1745,0.1745,0,0,0,0,0,0,0,0,0,0,0,0,0,0.1788,0.1787,0.177,0.1771,0.1771,0.1767,0.1766,0.1766,0.1757,0.1757,0.1757,0.1757,0.1746,0.1745,0.1745,0,0,0,0,0,0,0,0,0,0,0,0,0,0.1779,0.1787,0.177,0.1768,0.1768,0.1767,0.1766,0.1766,0.1757,0.1757,0.1757,0.1757,0.1746,0.1745,0.1745,0.1738,0,0,0.1743,0.1743,0,0,0,0,0,0,0,0,0.1779,0.1778,0.1768,0.1768,0.1768,0.1765,0.1769,0.1757,0.1757,0.1758,0.1757,0.1757,0.1753,0.1752,0.1747,0.1737,0.1737,0.1743,0.1742,0.1742,0.1742,0,0,0,0,0,0,0,0.178,0.1778,0.1766,0.1769,0.1769,0.1774,0.1772,0.1766,0.1752,0.1758,0.1758,0.1762,0.1753,0.1747,0.1746,0.1737,0.1743,0.1742,0.1742,0.1742,0.1759,0.176,0,0,0,0,0,0,0.1786,0.1778,0.1766,0.1766,0.1778,0.1774,0.1772,0.1763,0.1752,0.1752,0.1762,0.1762,0.1748,0.1747,0.1746,0.1789,0.1742,0.1742,0.1741,0.1758,0.1759,0.176,0,0,0,0,0,0,0.1786,0.1784,0.1766,0.1775,0.1774,0.1773,0.1764,0.1763,0.1759,0.1757,0.1755,0.176,0.1748,0.1747,0.1743,0.1786,0.1741,0.1741,0.1757,0.1758,0.1759,0.1841,0,0,0,0,0,0,0.1786,0.1783,0.1786,0.1775,0.1774,0.1763,0.1764,0.1763,0.1763,0.1763,0.1754,0.1753,0.1748,0.1744,0.1743,0.1784,0.174,0.1756,0.1758,0.1759,0.1837,0.1845,0.1851,0,0,0,0,0,0.1786,0.1781,0.1785,0.1785,0.1774,0.1763,0.1762,0.1761,0.1763,0.1758,0.1757,0.1753,0.1754,0.1744,0.1742,0.1785,0.1755,0.1757,0.1759,0.1834,0.1843,0.1851,0,0,0,0,0,0,0.1817,0.178,0.1784,0.1777,0.1774,0.1763,0.1762,0.1762,0.1756,0.1757,0.1753,0.1751,0.1777,0.1755,0.1745,0.1792,0.1758,0.176,0.1816,0.1825,0.1832,0.1948,0.174,0,0,0,0,0,0.182,0.1795,0.178,0.1784,0.1773,0.1769,0.1768,0.1766,0.1759,0.1757,0.1754,0.1757,0.1782,0.178,0.1789,0.1797,0.1839,0.1825,0.1832,0.1838,0.193,0.2019,0.2045,0.1766,0.1766,0.1766,0,0,0.1849,0.1819,0.1816,0.1788,0.1781,0.1785,0.1766,0.1761,0.1795,0.1757,0.1788,0.1783,0.1791,0.1819,0.1828,0.1804,0.1921,0.184,0.1846,0.1937,0.2024,0.2052,0.2077,0.1767,0.1767,0.1767,0,0,0.1882,0.1849,0.1839,0.1821,0.1802,0.1797,0.1796,0.1781,0.1799,0.1812,0.1822,0.1874,0.1836,0.1908,0.1928,0.1982,0.1964,0.1927,0.2052,0.2134,0.216,0.2184,0.2205,0.223,0.192,0.1921,0.1921,0,0.1931,0.1916,0.1845,0.183,0.1852,0.1805,0.1841,0.1836,0.1834,0.1894,0.1829,0.1913,0.1922,0.2043,0.2068,0.2016,0.2008,0.2016,0.215,0.2175,0.2198,0.2214,0.2241,0.1925,0.1924,0.1924,0.1923,0,0.1955,0.1952,0.1943,0.1916,0.1915,0.1933,0.1921,0.194,0.1944,0.1973,0.2068,0.207,0.2141,0.213,0.2122,0.2282,0.2202,0.2156,0.2141,0.2232,0.224,0.2267,0.1931,0.1929,0.1928,0.1927,0,0,0.2075,0.1989,0.1995,0.2003,0.1977,0.1979,0.2038,0.2117,0.2169,0.2178,0.2283,0.2372,0.2372,0.2403,0.238,0.2465,0.2603,0.2376,0.2378,0.2422,0.272,0.2576,0.259,0.254,0.2547,0.2552,0.2637,0,0.2154,0.2151,0.2103,0.2149,0.2159,0.215,0.2196,0.225,0.2276,0.2332,0.2416,0.2459,0.2461,0.2458,0.257,0.2586,0.2686,0.2583,0.261,0.2613,0.2496,0.2624,0.2507,0.2567,0.2663,0.2667,0.2671,0,0.221,0.2208,0.2256,0.2265,0.2272,0.2283,0.2377,0.2408,0.2489,0.2507,0.2606,0.2598,0.2762,0.269,0.2882,0.2784,0.2813,0.2822,0.2822,0.2712,0.2524,0.2504,0.2612,0.2514,0.2711,0.2708,0.2705,0,0.2305,0.2323,0.2373,0.2372,0.2362,0.2412,0.2425,0.2485,0.2507,0.2601,0.2602,0.2769,0.2786,0.2911,0.295,0.2906,0.3099,0.3025,0.2945,0.293,0.2867,0.2835,0.2928,0.3225,0.3225,0.3225,0.3225,0,0.2387,0.2413,0.2406,0.2412,0.2462,0.2457,0.2502,0.2534,0.2571,0.259,0.2674,0.2696,0.2838,0.2924,0.2997,0.3049,0.3148,0.3047,0.2986,0.2874,0.2845,0.2781,0.2726,0.3228,0.3227,0.3227,0.3226,0,0.2404,0.2415,0.2437,0.2468,0.2469,0.2483,0.2459,0.2484,0.2525,0.2543,0.2561,0.266,0.2765,0.2883,0.3043,0.3056,0.3044,0.3138,0.2964,0.2883,0.2685,0.2636,0.2637,0.2569,0.3083,0.3081,0.3079,0,0.2388,0.2411,0.2432,0.243,0.2419,0.2429,0.2419,0.2442,0.2448,0.2504,0.2511,0.2609,0.2662,0.2827,0.2909,0.3023,0.2955,0.2929,0.2887,0.2732,0.2635,0.2526,0.2464,0.2803,0.2799,0.2796,0.2793,0,0.237,0.2378,0.2393,0.2383,0.2371,0.2338,0.233,0.2317,0.2349,0.2367,0.2394,0.2444,0.2585,0.2633,0.2747,0.2808,0.2752,0.2857,0.2789,0.2543,0.2351,0.2231,0.2636,0.2763,0.2766,0.2769,0.277,0.2771,0.2345,0.2334,0.2355,0.2329,0.2304,0.2237,0.2183,0.2191,0.2163,0.2158,0.2257,0.2284,0.239,0.2536,0.2569,0.2506,0.2539,0.2445,0.2431,0.236,0.2223,0.2529,0.2513,0.2515,0.2516,0.2517,0.2518,0,0.2324,0.2314,0.2298,0.224,0.2166,0.2175,0.2114,0.2049,0.199,0.2037,0.2051,0.2089,0.212,0.2199,0.22,0.2116,0.2068,0.2048,0.1927,0.1914,0.2284,0.2198,0.2,0.2,0.2,0.2,0.2,0.2,0.2317,0.229,0.2264,0.2125,0.2071,0.1933,0.1878,0.1806,0.1803,0.1746,0.1744,0.1798,0.1884,0.1892,0.1817,0.1791,0.1679,0.1571,0.1592,0.1885,0.1922,0.1957,0.1867,0.1603,0.1602,0.1163,0.116,0.1157]},{"header":{"parameterUnit":"m.s-1","parameterCategory":2,"la1":30.2991,"la2":30.254,"lo1":-89.0895,"lo2":-89.0444,"dy":0.0017,"dx":0.0017,"nx":28,"ny":28,"refTime":"2023-03-21T21:00:00:Z","depth":"0","parameterNumber":3,"parameterNumberName":"V-component_of_CURRENTS"},"data":[0,0,0,0,0,0,0,0,0,0,0,0,0,0,0,0,0,0,0,0,0,0,0,0,0,0,0,0,0,0,0,0,0,0,0,0,0,0,0,0,0,0,0,0,0,0,0,0,0,0,0,0,0,0,0,0,0,0,0.0144,0.0143,0,0.0072,0.0071,0.007,0.0073,0.0075,0.0076,0.0077,-0.0006,-0.0009,-0.0013,0,0,0,0,0,0,0,0,0,0,0,0,0,0.0282,0.0279,0.0144,0.0143,0.0142,0.0072,0.0071,0.0069,0.0073,0.0075,0.0076,0.0078,-0.0005,-0.0009,-0.0013,0,0,0,0,0,0,0,0,0,0,0,0,0,0.0214,0.0278,0.0144,0.0138,0.0137,0.0072,0.0071,0.0069,0.0073,0.0075,0.0077,0.0078,-0.0003,-0.0008,-0.0013,-0.0083,0,0,-0.0029,-0.0031,0,0,0,0,0,0,0,0,0.0218,0.0209,0.0139,0.0138,0.0137,0.0086,0.0089,0.0019,0.0072,0.0094,0.0077,0.0079,0.0024,0.0017,-0.0005,-0.0087,-0.0091,-0.0029,-0.0033,-0.0035,-0.0036,0,0,0,0,0,0,0,0.0223,0.0212,0.0113,0.0138,0.0137,0.0138,0.013,0.0075,0.0047,0.0092,0.0093,0.0089,0.0023,0.0,-0.0007,-0.0092,-0.0029,-0.0034,-0.0037,-0.0039,-0.0115,-0.0114,0,0,0,0,0,0,0.0234,0.0216,0.0115,0.0111,0.0186,0.0134,0.0125,0.0098,0.0048,0.0043,0.0087,0.0089,0.0008,-0.0001,-0.0009,0.005,-0.0035,-0.0039,-0.0042,-0.0116,-0.0115,-0.0114,0,0,0,0,0,0,0.0237,0.0225,0.0118,0.0166,0.0153,0.013,0.0099,0.0096,0.0078,0.0045,0.0039,0.0075,0.0009,-0.0002,-0.0051,0.0041,-0.0042,-0.0046,-0.0117,-0.0116,-0.0114,0.0075,0,0,0,0,0,0,0.0241,0.0226,0.0201,0.0165,0.015,0.0073,0.0097,0.0093,0.0073,0.0075,0.0031,0.0026,0.001,-0.0043,-0.0056,0.0033,-0.005,-0.0119,-0.0117,-0.0115,0.0068,0.0083,0.0096,0,0,0,0,0,0.0246,0.0204,0.02,0.0188,0.0119,0.0072,0.0063,0.0054,0.0071,0.0047,0.0032,0.0027,-0.0037,-0.0049,-0.0063,0.0027,-0.0119,-0.0117,-0.0115,0.0061,0.008,0.0096,0,0,0,0,0,0,0.026,0.02,0.0195,0.014,0.0108,0.0074,0.0051,0.0048,0.0015,0.0027,0.0003,-0.0006,0.0004,-0.0046,-0.0057,0.0007,-0.0065,-0.0066,0.0074,0.0091,0.0105,0.0249,-0.0055,0,0,0,0,0,0.0249,0.0195,0.0157,0.0113,0.0099,0.0075,0.0054,0.0053,0.0025,0.0013,-0.0009,-0.0019,-0.0003,-0.0008,-0.0031,-0.0035,-0.0045,0.0021,0.0035,0.0048,0.0152,0.0177,0.0206,-0.0106,-0.0106,-0.0106,0,0,0.0245,0.0204,0.0176,0.0112,0.0089,0.0121,0.0066,0.0038,0.0107,0.0006,0.0059,0.0011,0.0,0.0033,0.0036,0.0007,0.0111,0.0051,0.0063,0.0163,0.0183,0.0214,0.0242,-0.0104,-0.0105,-0.0105,0,0,0.0248,0.0173,0.0159,0.0145,0.0115,0.0117,0.0114,0.0083,0.0105,0.0109,0.0108,0.0132,0.0072,0.0151,0.0174,0.0243,0.018,0.0193,0.0398,0.0417,0.0446,0.0471,0.0428,0.0448,0.0209,0.021,0.021,0,0.0269,0.0261,0.0148,0.0168,0.0219,0.0136,0.0219,0.0208,0.0178,0.0244,0.015,0.0215,0.0183,0.0351,0.0389,0.0299,0.0243,0.0339,0.0445,0.047,0.0493,0.0443,0.0463,0.0219,0.0218,0.0217,0.0216,0,0.0301,0.0317,0.031,0.0339,0.0347,0.0386,0.0395,0.0413,0.0417,0.0444,0.0539,0.0476,0.0547,0.0525,0.0486,0.0655,0.0534,0.0454,0.0421,0.0537,0.0473,0.0491,0.0233,0.0229,0.0226,0.0224,0,0,0.0381,0.0351,0.0376,0.0448,0.0474,0.0499,0.0612,0.073,0.0839,0.0794,0.0951,0.0994,0.0943,0.097,0.0904,0.0935,0.101,0.0771,0.0767,0.0766,0.0987,0.0896,0.0903,0.0909,0.0915,0.0919,0.0853,0,0.0505,0.0591,0.0567,0.0734,0.0811,0.0822,0.0938,0.1018,0.1043,0.1127,0.1146,0.1201,0.1113,0.1108,0.1155,0.1035,0.1074,0.1034,0.0848,0.0844,0.0781,0.0931,0.0888,0.0827,0.087,0.0873,0.0875,0,0.0624,0.0678,0.0836,0.0982,0.1023,0.1106,0.1317,0.1397,0.1496,0.1503,0.1585,0.1517,0.1618,0.1449,0.1442,0.1388,0.126,0.1149,0.114,0.1039,0.0793,0.0728,0.0856,0.0707,0.0901,0.0898,0.0897,0,0.0779,0.0911,0.1057,0.1104,0.1214,0.133,0.1414,0.1531,0.1602,0.1716,0.1727,0.1822,0.1787,0.1725,0.1523,0.1462,0.1431,0.1301,0.1123,0.1107,0.1047,0.102,0.1069,0.1348,0.1348,0.1348,0.1348,0,0.0953,0.1078,0.1127,0.1203,0.139,0.1452,0.1635,0.1711,0.1808,0.1889,0.1902,0.1938,0.1841,0.1777,0.1621,0.1442,0.1516,0.1247,0.1138,0.1094,0.1074,0.0917,0.0853,0.1345,0.1346,0.1347,0.1347,0,0.1052,0.11,0.1242,0.1385,0.1432,0.1548,0.1673,0.1777,0.1867,0.1957,0.1979,0.201,0.1939,0.1819,0.1672,0.1523,0.1295,0.1286,0.1218,0.1108,0.0805,0.0753,0.0793,0.0736,0.1111,0.1109,0.1108,0,0.108,0.1161,0.1301,0.1359,0.1409,0.156,0.1641,0.1771,0.1851,0.1983,0.2017,0.2006,0.1998,0.1785,0.1548,0.1325,0.1219,0.1115,0.1063,0.0881,0.0741,0.0729,0.0678,0.1,0.0998,0.0996,0.0994,0,0.1133,0.1172,0.1265,0.1365,0.1458,0.1568,0.1697,0.1763,0.1911,0.1989,0.2076,0.2094,0.1916,0.1703,0.1415,0.1246,0.1041,0.1066,0.0929,0.0768,0.0718,0.0574,0.0889,0.0978,0.0979,0.098,0.0981,0.0982,0.1131,0.1184,0.1282,0.1378,0.147,0.1574,0.1658,0.1781,0.1904,0.2039,0.2086,0.212,0.1836,0.145,0.1248,0.0813,0.0869,0.0659,0.0632,0.0653,0.059,0.0862,0.0793,0.0793,0.0794,0.0794,0.0794,0,0.1142,0.1209,0.1288,0.1408,0.1477,0.1539,0.169,0.1776,0.1899,0.2019,0.2107,0.1968,0.1598,0.1254,0.0686,0.0424,0.0376,0.0291,0.0282,0.0264,0.0535,0.0519,0.0328,0.0328,0.0328,0.0328,0.0328,0.0328,0.1164,0.1242,0.1285,0.1389,0.1453,0.156,0.1637,0.176,0.1878,0.1981,0.1997,0.2037,0.1717,0.0811,0.0211,0.009,-0.0038,-0.007,-0.0121,0.0039,0.0071,0.0102,0.0074,-0.0208,-0.0209,-0.0378,-0.038,-0.0381]}],[{"header":{"parameterUnit":"m.s-1","parameterCategory":2,"la1":30.2991,"la2":30.254,"lo1":-89.0895,"lo2":-89.0444,"dy":0.0017,"dx":0.0017,"nx":28,"ny":28,"refTime":"2023-03-21T21:00:00:Z","depth":"2","parameterNumber":2,"parameterNumberName":"U-component_of_CURRENTS"},"data":[0,0,0,0,0,0,0,0,0,0,0,0,0,0,0,0,0,0,0,0,0,0,0,0,0,0,0,0,0,0,0,0,0,0,0,0,0,0,0,0,0,0,0,0,0,0,0,0,0,0,0,0,0,0,0,0,0,0,0.1737,0.1737,0,0.1769,0.177,0.1771,0.1749,0.1747,0.1745,0.1743,0.1737,0.1738,0.174,0,0,0,0,0,0,0,0,0,0,0,0,0,0.1729,0.173,0.1737,0.1737,0.1737,0.1769,0.177,0.1772,0.1749,0.1747,0.1744,0.1742,0.1737,0.1738,0.174,0,0,0,0,0,0,0,0,0,0,0,0,0,0.1752,0.173,0.1737,0.1723,0.1721,0.1769,0.177,0.1772,0.1749,0.1747,0.1744,0.1741,0.1736,0.1738,0.174,0.1808,0,0,0.1747,0.1748,0,0,0,0,0,0,0,0,0.1751,0.1754,0.1725,0.1724,0.1722,0.1745,0.1765,0.1779,0.175,0.1748,0.1743,0.174,0.1733,0.1735,0.176,0.1808,0.1808,0.1747,0.1749,0.175,0.175,0,0,0,0,0,0,0,0.1749,0.1752,0.1759,0.1725,0.1723,0.1739,0.174,0.1769,0.1761,0.1748,0.1744,0.1735,0.1732,0.1758,0.1759,0.1808,0.1747,0.1749,0.1751,0.1752,0.184,0.1841,0,0,0,0,0,0,0.1728,0.1751,0.1757,0.1759,0.1721,0.174,0.1742,0.1747,0.1761,0.1758,0.1737,0.1734,0.1755,0.1756,0.1758,0.1806,0.175,0.1752,0.1753,0.1839,0.1841,0.1842,0,0,0,0,0,0,0.1728,0.1729,0.1756,0.1748,0.1751,0.1742,0.1749,0.1749,0.1767,0.1752,0.175,0.1753,0.1753,0.1755,0.1761,0.1806,0.1753,0.1755,0.1838,0.184,0.1841,0.1922,0,0,0,0,0,0,0.1728,0.1729,0.1753,0.1747,0.175,0.1771,0.1751,0.1751,0.1762,0.1758,0.1765,0.1762,0.1751,0.1757,0.1763,0.1808,0.1757,0.1837,0.1839,0.1841,0.1918,0.1926,0.1933,0,0,0,0,0,0.1728,0.1747,0.1755,0.1756,0.1775,0.177,0.1775,0.1765,0.1765,0.1774,0.1768,0.1762,0.1773,0.176,0.1766,0.1813,0.1836,0.1838,0.1841,0.1914,0.1924,0.1932,0,0,0,0,0,0,0.1772,0.1746,0.1754,0.1772,0.1769,0.1762,0.1771,0.1777,0.1789,0.1783,0.1776,0.1774,0.1802,0.1791,0.1777,0.1841,0.1805,0.1808,0.1859,0.1868,0.1875,0.1963,0.1759,0,0,0,0,0,0.1792,0.1794,0.1777,0.18,0.1789,0.1792,0.1799,0.1792,0.1787,0.1791,0.179,0.1796,0.1824,0.1826,0.184,0.1878,0.1892,0.1909,0.1917,0.1923,0.1997,0.2033,0.2052,0.1849,0.1849,0.1849,0,0,0.1826,0.1805,0.1817,0.1809,0.1806,0.1815,0.1791,0.179,0.1829,0.179,0.1833,0.1827,0.1839,0.1875,0.1888,0.1866,0.1976,0.1926,0.1932,0.2004,0.2038,0.2058,0.2076,0.1851,0.185,0.185,0,0,0.1863,0.1861,0.1868,0.1857,0.1837,0.1838,0.1837,0.1828,0.185,0.1878,0.1875,0.1918,0.1909,0.1968,0.1989,0.2058,0.2018,0.2013,0.2125,0.2157,0.2176,0.2192,0.2188,0.2204,0.2011,0.2012,0.2012,0,0.1913,0.1927,0.1876,0.1868,0.1892,0.1848,0.1889,0.1898,0.1902,0.1956,0.1887,0.1981,0.1989,0.2112,0.2122,0.2091,0.2055,0.2088,0.2171,0.2188,0.2204,0.2196,0.2212,0.2016,0.2015,0.2015,0.2014,0,0.1944,0.1968,0.1963,0.1955,0.1965,0.1986,0.1978,0.2005,0.2013,0.2039,0.2132,0.2138,0.2203,0.2199,0.2183,0.2307,0.2225,0.2178,0.2156,0.223,0.2215,0.2231,0.2022,0.202,0.2019,0.2018,0,0,0.2047,0.2007,0.2018,0.204,0.2029,0.2039,0.2102,0.2181,0.2236,0.2244,0.2344,0.2426,0.2417,0.2448,0.243,0.2472,0.2539,0.2362,0.2362,0.2374,0.2552,0.236,0.2358,0.2458,0.2462,0.2465,0.248,0,0.2119,0.2151,0.2125,0.2191,0.2212,0.2212,0.2276,0.2329,0.2348,0.2401,0.2472,0.2513,0.2506,0.2503,0.2569,0.2536,0.2589,0.2538,0.247,0.2471,0.2303,0.2375,0.2195,0.2181,0.2495,0.2498,0.25,0,0.2174,0.2194,0.2271,0.2325,0.234,0.2362,0.2472,0.251,0.2576,0.259,0.2665,0.2649,0.2765,0.2686,0.2778,0.271,0.2677,0.2649,0.2646,0.2474,0.231,0.2167,0.2197,0.2526,0.2524,0.2522,0.252,0,0.2251,0.231,0.2392,0.2401,0.2433,0.249,0.2516,0.2577,0.2605,0.2669,0.2663,0.2794,0.2789,0.2829,0.2785,0.2757,0.2812,0.2761,0.2588,0.257,0.2424,0.2386,0.2861,0.2861,0.2861,0.2861,0.2861,0,0.232,0.2359,0.2421,0.2431,0.251,0.2535,0.2595,0.2624,0.267,0.2682,0.2732,0.2744,0.2808,0.2818,0.2816,0.2737,0.2845,0.2658,0.2586,0.2434,0.2399,0.2711,0.2694,0.2861,0.2861,0.2861,0.2861,0,0.2274,0.2351,0.2383,0.2472,0.2501,0.2512,0.2541,0.2562,0.2624,0.2625,0.2631,0.2696,0.2708,0.2751,0.278,0.2719,0.2696,0.2642,0.2437,0.2341,0.2431,0.2418,0.2483,0.2477,0.2472,0.2467,0.2464,0,0.2228,0.2252,0.2339,0.235,0.2351,0.2393,0.2405,0.249,0.2486,0.2576,0.2554,0.2598,0.2586,0.2561,0.2491,0.2456,0.2573,0.2227,0.2193,0.2482,0.2406,0.24,0.2394,0.2018,0.2011,0.2005,0.2,0,0.2097,0.213,0.2154,0.2195,0.2211,0.2233,0.2257,0.2258,0.2354,0.2384,0.2428,0.2446,0.2402,0.2264,0.2163,0.212,0.2221,0.2101,0.2492,0.2112,0.2036,0.1962,0.1974,0.1949,0.1954,0.1958,0.1961,0.1963,0.1979,0.195,0.2024,0.2022,0.2062,0.208,0.2062,0.2095,0.2118,0.2102,0.2191,0.2122,0.2097,0.184,0.1771,0.1714,0.1867,0.1789,0.1811,0.1838,0.1754,0.1669,0.1497,0.15,0.1502,0.1504,0.1505,0,0.1879,0.1888,0.1859,0.1895,0.1878,0.1978,0.1984,0.194,0.193,0.1869,0.1854,0.1596,0.1469,0.1502,0.1335,0.1273,0.131,0.1227,0.1305,0.1353,0.1398,0.1296,0.0916,0.0914,0.0913,0.0911,0,0,0.1858,0.1803,0.1771,0.1733,0.1776,0.1784,0.1793,0.1719,0.1662,0.1465,0.1362,0.1321,0.1417,0.1131,0.1085,0.1006,0.1178,0.0948,0.1418,0.156,0.1603,0.1709,0.1603,0,0,0,0,0]},{"header":{"parameterUnit":"m.s-1","parameterCategory":2,"la1":30.2991,"la2":30.254,"lo1":-89.0895,"lo2":-89.0444,"dy":0.0017,"dx":0.0017,"nx":28,"ny":28,"refTime":"2023-03-21T21:00:00:Z","depth":"2","parameterNumber":3,"parameterNumberName":"V-component_of_CURRENTS"},"data":[0,0,0,0,0,0,0,0,0,0,0,0,0,0,0,0,0,0,0,0,0,0,0,0,0,0,0,0,0,0,0,0,0,0,0,0,0,0,0,0,0,0,0,0,0,0,0,0,0,0,0,0,0,0,0,0,0,0,-0.0009,-0.0009,0,-0.0071,-0.0072,-0.0073,-0.0094,-0.0094,-0.0094,-0.0093,-0.0166,-0.0169,-0.0171,0,0,0,0,0,0,0,0,0,0,0,0,0,0.0043,0.0043,-0.0009,-0.001,-0.001,-0.0071,-0.0072,-0.0073,-0.0094,-0.0094,-0.0093,-0.0093,-0.0166,-0.0168,-0.0171,0,0,0,0,0,0,0,0,0,0,0,0,0,0.0003,0.0042,-0.0009,-0.0027,-0.0029,-0.0071,-0.0072,-0.0073,-0.0095,-0.0094,-0.0093,-0.0093,-0.0165,-0.0168,-0.0171,-0.0205,0,0,-0.0182,-0.0184,0,0,0,0,0,0,0,0,0.0006,0.0001,-0.0024,-0.0026,-0.0028,-0.0073,-0.008,-0.0117,-0.0095,-0.0071,-0.0093,-0.0092,-0.0135,-0.0141,-0.0157,-0.0208,-0.0211,-0.0182,-0.0184,-0.0186,-0.0187,0,0,0,0,0,0,0,0.0009,0.0004,-0.0035,-0.0024,-0.0027,-0.0048,-0.0053,-0.0088,-0.0108,-0.0073,-0.0075,-0.0079,-0.0137,-0.0153,-0.0158,-0.0212,-0.0182,-0.0185,-0.0187,-0.0189,-0.0234,-0.0233,0,0,0,0,0,0,0.0021,0.0006,-0.0033,-0.0037,-0.0008,-0.0049,-0.0055,-0.0061,-0.0107,-0.0113,-0.008,-0.008,-0.0147,-0.0154,-0.0161,-0.0132,-0.0186,-0.0189,-0.0191,-0.0235,-0.0234,-0.0233,0,0,0,0,0,0,0.0023,0.0018,-0.0031,-0.0015,-0.0023,-0.005,-0.0057,-0.0062,-0.0074,-0.0111,-0.0118,-0.0086,-0.0147,-0.0156,-0.0188,-0.0138,-0.0191,-0.0194,-0.0236,-0.0234,-0.0233,-0.012,0,0,0,0,0,0,0.0024,0.0019,0.0015,-0.0014,-0.0023,-0.0059,-0.0058,-0.0064,-0.0077,-0.0078,-0.0119,-0.0125,-0.0147,-0.0183,-0.0192,-0.0143,-0.0197,-0.0237,-0.0235,-0.0233,-0.0125,-0.0115,-0.0106,0,0,0,0,0,0.0026,0.0014,0.0015,0.001,-0.0027,-0.0059,-0.0067,-0.0085,-0.0078,-0.0092,-0.0111,-0.0124,-0.0177,-0.0186,-0.0196,-0.0147,-0.0238,-0.0236,-0.0234,-0.0129,-0.0117,-0.0107,0,0,0,0,0,0,0.0014,0.001,0.001,-0.0008,-0.003,-0.0062,-0.0077,-0.0083,-0.011,-0.0103,-0.0133,-0.0142,-0.0141,-0.0175,-0.0184,-0.0157,-0.0201,-0.0201,-0.0118,-0.0107,-0.0098,-0.0047,-0.0199,0,0,0,0,0,0.0015,0.0016,-0.0003,-0.002,-0.0026,-0.0048,-0.0063,-0.007,-0.0094,-0.0105,-0.0128,-0.0143,-0.0143,-0.0152,-0.0172,-0.0177,-0.0244,-0.0147,-0.0138,-0.013,-0.0096,-0.0207,-0.0205,-0.0226,-0.0226,-0.0226,0,0,0.0004,0.0002,-0.0,-0.002,-0.0036,-0.0018,-0.0056,-0.0074,-0.0041,-0.0109,-0.0088,-0.0121,-0.014,-0.0129,-0.013,-0.015,-0.0159,-0.0127,-0.012,-0.009,-0.0204,-0.0203,-0.0201,-0.0225,-0.0225,-0.0225,0,0,0.0005,-0.0018,0.0002,-0.0001,-0.0011,-0.0017,-0.0016,-0.0039,-0.0034,-0.0032,-0.0048,-0.0052,-0.0082,-0.0066,-0.0062,-0.002,-0.0111,-0.0032,0.0061,-0.0048,-0.0047,-0.0047,-0.013,-0.0138,-0.0024,-0.0024,-0.0023,0,-0.0007,0.0033,-0.0006,0.0023,0.0044,-0.0002,0.0041,0.0034,0.0008,0.0015,-0.0009,-0.0023,-0.003,0.0009,0.005,0.001,-0.0082,0.0024,-0.0036,-0.0037,-0.004,-0.0125,-0.0136,-0.0018,-0.0019,-0.0019,-0.002,0,0.0038,0.0072,0.0076,0.0124,0.0119,0.0141,0.0141,0.0139,0.014,0.0132,0.014,0.0108,0.0104,0.0111,0.0111,0.0116,0.0045,-0.0018,-0.0062,-0.0031,-0.0123,-0.0136,-0.001,-0.0012,-0.0013,-0.0015,0,0,0.0032,0.0104,0.0119,0.0158,0.0192,0.0183,0.0242,0.0268,0.0274,0.0264,0.0268,0.032,0.0271,0.0276,0.0247,0.019,0.0126,0.01,0.0091,0.0024,-0.0124,-0.0064,-0.0075,0.0017,0.0015,0.0014,-0.0183,0,0.01,0.0202,0.0222,0.0302,0.0348,0.0342,0.0381,0.0386,0.0365,0.0334,0.033,0.0309,0.0341,0.0316,0.0281,0.0152,0.0095,0.0187,-0.0148,-0.0155,-0.0103,-0.0085,-0.0043,-0.0207,-0.0197,-0.0199,-0.0201,0,0.0178,0.0232,0.0349,0.0401,0.0415,0.0448,0.0471,0.0499,0.0464,0.0436,0.0425,0.0362,0.0364,0.032,0.0177,0.0214,0.0087,-0.0024,-0.0037,-0.002,-0.0119,-0.0238,-0.0232,-0.0224,-0.0222,-0.022,-0.0219,0,0.0216,0.0325,0.0426,0.0453,0.0496,0.0531,0.0552,0.0535,0.0511,0.0484,0.041,0.0395,0.0337,0.0208,0.0096,0.0086,-0.0135,-0.0203,-0.0267,-0.0266,-0.0304,-0.0302,-0.0341,-0.034,-0.034,-0.0339,-0.0339,0,0.0292,0.0347,0.045,0.0481,0.0519,0.0568,0.0562,0.0566,0.0531,0.0493,0.0459,0.0395,0.029,0.0167,0.0058,-0.0099,-0.0161,-0.0226,-0.0305,-0.0261,-0.0253,-0.0325,-0.0321,-0.0347,-0.0345,-0.0344,-0.0342,0,0.0262,0.0373,0.0425,0.0507,0.0527,0.0535,0.0525,0.0505,0.0501,0.0438,0.0426,0.035,0.0245,0.0128,-0.009,-0.0154,-0.0318,-0.0373,-0.0273,-0.0332,-0.0381,-0.0368,-0.0492,-0.0492,-0.0491,-0.0491,-0.049,0,0.0251,0.0303,0.0384,0.04,0.0424,0.045,0.045,0.0474,0.0461,0.0421,0.0388,0.0286,0.0254,0.0002,-0.0119,-0.0292,-0.0334,-0.0397,-0.0366,-0.0327,-0.0394,-0.0382,-0.0371,-0.0402,-0.0401,-0.04,-0.0399,0,0.0171,0.0212,0.0244,0.0305,0.0327,0.0327,0.0367,0.0342,0.0402,0.037,0.0379,0.036,0.0198,0.0094,-0.0102,-0.0226,-0.0343,-0.0384,-0.0434,-0.0325,-0.0246,-0.0309,-0.0301,-0.0391,-0.0392,-0.0393,-0.0393,-0.0393,0.008,0.0071,0.0168,0.0196,0.026,0.0307,0.0289,0.0337,0.0356,0.0411,0.0403,0.0422,0.0287,0.0087,-0.0083,-0.0264,-0.0298,-0.0382,-0.0385,-0.0389,-0.0298,-0.0218,-0.0342,-0.0342,-0.0343,-0.0343,-0.0343,0,0.001,0.0052,0.0067,0.0157,0.0233,0.0298,0.032,0.0316,0.0384,0.0476,0.0535,0.0429,0.0319,0.016,-0.0076,-0.0239,-0.0268,-0.0305,-0.0306,-0.0313,-0.0319,-0.0224,-0.0249,-0.0249,-0.0249,-0.0249,0,0,-0.0009,0.0007,0.0027,0.0161,0.0263,0.0358,0.039,0.0378,0.0434,0.0518,0.0595,0.0625,0.0427,0.0268,0.0045,-0.0081,-0.0158,-0.0116,-0.0177,-0.0157,-0.0161,-0.0354,-0.0214,0,0,0,0,0]}],[{"header":{"parameterUnit":"m.s-1","parameterCategory":2,"la1":30.2991,"la2":30.254,"lo1":-89.0895,"lo2":-89.0444,"dy":0.0017,"dx":0.0017,"nx":28,"ny":28,"refTime":"2023-03-21T21:00:00:Z","depth":"4","parameterNumber":2,"parameterNumberName":"U-component_of_CURRENTS"},"data":[0,0,0,0,0,0,0,0,0,0,0,0,0,0,0,0,0,0,0,0,0,0,0,0,0,0,0,0,0,0,0,0,0,0,0,0,0,0,0,0,0,0,0,0,0,0,0,0,0,0,0,0,0,0,0,0,0,0,0.0634,0.0634,0,0.069,0.069,0.0691,0.0752,0.0753,0.0754,0.0755,0.0777,0.0777,0.0776,0,0,0,0,0,0,0,0,0,0,0,0,0,0.0581,0.0582,0.0634,0.0634,0.0635,0.069,0.069,0.0691,0.0752,0.0753,0.0755,0.0756,0.0777,0.0777,0.0776,0,0,0,0,0,0,0,0,0,0,0,0,0,0.0617,0.0582,0.0633,0.0673,0.0677,0.0689,0.069,0.0691,0.0752,0.0753,0.0755,0.0756,0.0777,0.0777,0.0776,0.0745,0,0,0.0775,0.0775,0,0,0,0,0,0,0,0,0.0615,0.0619,0.0666,0.067,0.0675,0.0716,0.068,0.0708,0.0752,0.0723,0.0755,0.0757,0.0753,0.0754,0.0761,0.0746,0.0747,0.0775,0.0775,0.0774,0.0774,0,0,0,0,0,0,0,0.0612,0.0617,0.0655,0.0667,0.0672,0.0688,0.0695,0.0686,0.0728,0.0725,0.073,0.0737,0.0755,0.0762,0.0762,0.0747,0.0775,0.0774,0.0774,0.0774,0.0847,0.0849,0,0,0,0,0,0,0.0605,0.0614,0.0653,0.0657,0.0648,0.0688,0.0695,0.0701,0.0729,0.0735,0.0736,0.074,0.0762,0.0763,0.0763,0.0876,0.0774,0.0774,0.0774,0.0845,0.0847,0.085,0,0,0,0,0,0,0.0603,0.0608,0.0651,0.0637,0.0644,0.0687,0.0693,0.0701,0.073,0.0737,0.0743,0.0759,0.0763,0.0764,0.0774,0.0871,0.0774,0.0773,0.0842,0.0846,0.0849,0.1005,0,0,0,0,0,0,0.0602,0.0607,0.0595,0.0637,0.0645,0.0659,0.0692,0.0701,0.0731,0.0737,0.0758,0.0761,0.0764,0.0775,0.0773,0.0869,0.0773,0.0839,0.0844,0.0848,0.0997,0.1013,0.1027,0,0,0,0,0,0.0599,0.056,0.0594,0.0598,0.0631,0.0658,0.0663,0.0699,0.0731,0.0733,0.0759,0.0762,0.0802,0.0774,0.0773,0.0871,0.0837,0.0842,0.0847,0.099,0.101,0.1027,0,0,0,0,0,0,0.0505,0.0565,0.0602,0.0577,0.0624,0.0669,0.0665,0.0706,0.0729,0.0744,0.076,0.0763,0.0835,0.08,0.077,0.0902,0.0832,0.0837,0.0942,0.096,0.0975,0.0917,0.0773,0,0,0,0,0,0.0487,0.0489,0.0555,0.0535,0.0564,0.0626,0.0639,0.0679,0.0711,0.0726,0.0753,0.0787,0.0849,0.0857,0.0888,0.0917,0.0852,0.0986,0.1001,0.1014,0.0965,0.095,0.0959,0.0866,0.0866,0.0866,0,0,0.0443,0.0475,0.0475,0.0519,0.0561,0.0634,0.0638,0.0669,0.0744,0.072,0.0804,0.0839,0.087,0.0946,0.0974,0.0928,0.1015,0.102,0.1032,0.0974,0.0956,0.0965,0.0973,0.0869,0.0869,0.0868,0,0,0.0394,0.0399,0.042,0.048,0.0555,0.0605,0.0626,0.0702,0.0744,0.0833,0.0861,0.09,0.1,0.1013,0.1047,0.1135,0.1109,0.1203,0.1218,0.1209,0.1215,0.122,0.1182,0.1182,0.1195,0.1195,0.1196,0,0.0344,0.0383,0.0422,0.0494,0.0547,0.0612,0.0684,0.0743,0.0815,0.0834,0.0885,0.1011,0.1032,0.11,0.1161,0.117,0.1156,0.1161,0.1227,0.123,0.1233,0.1191,0.1189,0.1203,0.1203,0.1202,0.1201,0,0.0364,0.0403,0.0415,0.055,0.0617,0.0656,0.0783,0.083,0.092,0.0981,0.1074,0.1107,0.1157,0.1225,0.1239,0.1285,0.1271,0.1267,0.118,0.1251,0.1204,0.1199,0.1215,0.1212,0.121,0.1208,0,0,0.0244,0.0393,0.0411,0.0487,0.0644,0.0702,0.0822,0.0914,0.0961,0.1081,0.1126,0.1267,0.1257,0.1283,0.1301,0.1298,0.1335,0.1304,0.13,0.126,0.1315,0.1259,0.1247,0.1376,0.1376,0.1375,0.1287,0,0.0248,0.0356,0.0455,0.0593,0.0663,0.0777,0.0873,0.0978,0.1065,0.1114,0.1167,0.1239,0.1297,0.1325,0.1341,0.1327,0.1325,0.1357,0.1251,0.1245,0.1184,0.124,0.1373,0.1282,0.1281,0.128,0.1279,0,0.0276,0.0332,0.0448,0.0599,0.0644,0.0747,0.0879,0.0973,0.1054,0.1115,0.1178,0.1224,0.1245,0.1286,0.1288,0.1326,0.1324,0.1315,0.1312,0.1179,0.1178,0.1186,0.1269,0.1269,0.127,0.1271,0.1272,0,0.0194,0.0348,0.0422,0.0488,0.0667,0.0733,0.0826,0.0949,0.101,0.1081,0.1126,0.1172,0.121,0.1213,0.1245,0.1277,0.1224,0.1248,0.1183,0.1178,0.1183,0.1178,0.1225,0.1225,0.1226,0.1226,0.1226,0,0.016,0.0239,0.0384,0.043,0.0512,0.068,0.0759,0.0848,0.0944,0.0993,0.1098,0.113,0.121,0.1218,0.1212,0.1178,0.1201,0.1161,0.1149,0.1257,0.1261,0.1181,0.1177,0.1223,0.1223,0.1224,0.1225,0,0.0096,0.0184,0.0279,0.0428,0.0481,0.0551,0.0725,0.077,0.0881,0.0938,0.0968,0.1104,0.1131,0.1169,0.1159,0.1142,0.1088,0.1071,0.1157,0.1156,0.1051,0.1057,0.0963,0.096,0.0958,0.0956,0.0954,0,0.0087,0.0112,0.0251,0.0298,0.0372,0.0484,0.0549,0.0705,0.0765,0.091,0.0921,0.101,0.1079,0.1014,0.1058,0.101,0.1024,0.0978,0.1037,0.1024,0.1023,0.1032,0.1041,0.0951,0.095,0.0949,0.0949,0,0.0038,0.0079,0.014,0.0209,0.0293,0.0385,0.0497,0.0528,0.0696,0.0788,0.0873,0.0912,0.0946,0.0973,0.0967,0.0931,0.0988,0.0954,0.096,0.1014,0.1008,0.1011,0.1022,0.0941,0.0942,0.0942,0.0943,0,0.0008,0.0018,0.0077,0.0154,0.0234,0.0302,0.0361,0.0471,0.0558,0.0736,0.0739,0.0834,0.0931,0.0928,0.089,0.0881,0.0883,0.0857,0.0868,0.0877,0.0896,0.0879,0.074,0,0,0,0,0,-0.0019,-0.001,0.0031,0.0118,0.0186,0.0245,0.0353,0.0418,0.0547,0.0589,0.0685,0.0714,0.0756,0.0798,0.0773,0.0822,0.0855,0.0785,0.0823,0.0895,0.0905,0.0939,0,0,0,0,0,0,-0.0035,-0.0011,0.0008,0.0078,0.0129,0.0214,0.0276,0.0355,0.0405,0.053,0.0563,0.0658,0.0705,0.0764,0.0757,0.0764,0.0769,0.0841,0.0839,0.089,0.0899,0.0906,0.0945,0,0,0,0,0]},{"header":{"parameterUnit":"m.s-1","parameterCategory":2,"la1":30.2991,"la2":30.254,"lo1":-89.0895,"lo2":-89.0444,"dy":0.0017,"dx":0.0017,"nx":28,"ny":28,"refTime":"2023-03-21T21:00:00:Z","depth":"4","parameterNumber":3,"parameterNumberName":"V-component_of_CURRENTS"},"data":[0,0,0,0,0,0,0,0,0,0,0,0,0,0,0,0,0,0,0,0,0,0,0,0,0,0,0,0,0,0,0,0,0,0,0,0,0,0,0,0,0,0,0,0,0,0,0,0,0,0,0,0,0,0,0,0,0,0,0.016,0.016,0,0.0165,0.0165,0.0165,0.0105,0.0103,0.0102,0.01,0.0132,0.0134,0.0136,0,0,0,0,0,0,0,0,0,0,0,0,0,0.008,0.0081,0.016,0.016,0.016,0.0165,0.0165,0.0165,0.0105,0.0103,0.0102,0.01,0.0131,0.0134,0.0136,0,0,0,0,0,0,0,0,0,0,0,0,0,0.0102,0.0082,0.016,0.0132,0.0129,0.0165,0.0165,0.0165,0.0106,0.0103,0.0101,0.0099,0.013,0.0133,0.0137,0.0205,0,0,0.0147,0.0149,0,0,0,0,0,0,0,0,0.0101,0.0105,0.0136,0.0134,0.0131,0.0132,0.0147,0.018,0.0106,0.0114,0.01,0.0098,0.0137,0.0139,0.0144,0.0207,0.0208,0.0147,0.015,0.0151,0.0152,0,0,0,0,0,0,0,0.0099,0.0104,0.0161,0.0136,0.0133,0.0112,0.0112,0.0153,0.0139,0.0113,0.0109,0.0111,0.0135,0.0141,0.0144,0.0208,0.0147,0.015,0.0153,0.0154,0.0262,0.0262,0,0,0,0,0,0,0.0104,0.0104,0.0161,0.0162,0.011,0.0115,0.0116,0.0134,0.0137,0.0136,0.0113,0.0108,0.0136,0.0141,0.0145,0.0134,0.0151,0.0154,0.0156,0.0261,0.0262,0.0263,0,0,0,0,0,0,0.0103,0.011,0.0161,0.0131,0.0136,0.0119,0.014,0.0135,0.0142,0.0137,0.0135,0.0125,0.0134,0.0141,0.019,0.0138,0.0156,0.0159,0.026,0.0261,0.0262,0.0172,0,0,0,0,0,0,0.0101,0.011,0.0131,0.0133,0.0138,0.0202,0.0142,0.0137,0.0147,0.0141,0.0148,0.0147,0.0133,0.0185,0.0193,0.0143,0.0162,0.0259,0.0261,0.0262,0.0174,0.017,0.0166,0,0,0,0,0,0.0098,0.0154,0.0132,0.0139,0.0166,0.0205,0.0207,0.0184,0.0151,0.0177,0.017,0.0147,0.0198,0.019,0.0199,0.0148,0.0258,0.026,0.0262,0.0175,0.017,0.0166,0,0,0,0,0,0,0.0128,0.0153,0.0129,0.0186,0.0196,0.0195,0.0219,0.02,0.0216,0.0204,0.0186,0.0188,0.0195,0.0221,0.0211,0.019,0.0214,0.0218,0.0145,0.0141,0.0137,0.0051,0.0164,0,0,0,0,0,0.0145,0.0197,0.0195,0.0243,0.0246,0.0231,0.0243,0.0229,0.0238,0.024,0.0238,0.0233,0.0214,0.0219,0.0229,0.0252,0.0255,0.0222,0.0218,0.0214,0.0155,0.0136,0.0123,0.0269,0.0269,0.0269,0,0,0.017,0.0191,0.0217,0.0254,0.0251,0.0231,0.0233,0.0263,0.0223,0.0247,0.0223,0.0235,0.0223,0.0212,0.0216,0.0224,0.0193,0.0217,0.0212,0.0154,0.0136,0.0121,0.0107,0.027,0.027,0.0269,0,0,0.0215,0.0259,0.0283,0.0283,0.029,0.0278,0.0287,0.0289,0.027,0.0285,0.0243,0.0228,0.0265,0.0193,0.0168,0.0168,0.0176,0.019,0.0091,0.0074,0.006,0.0047,0.0094,0.0086,0.0183,0.0183,0.0183,0,0.0227,0.0238,0.0299,0.0286,0.0259,0.0286,0.0247,0.0247,0.0262,0.0235,0.0275,0.0226,0.0223,0.0116,0.0086,0.0143,0.0172,0.0099,0.0062,0.0049,0.0037,0.0088,0.0079,0.0179,0.018,0.018,0.018,0,0.0236,0.0235,0.0254,0.0223,0.0227,0.0222,0.02,0.021,0.0205,0.018,0.0137,0.0143,0.0099,0.0091,0.0074,-0.0032,0.0033,0.0059,0.0055,0.0015,0.0075,0.0067,0.0173,0.0175,0.0176,0.0177,0,0,0.0247,0.025,0.0237,0.0204,0.0176,0.0186,0.0133,0.0082,0.0056,0.0059,0.0008,-0.0076,-0.0062,-0.0093,-0.0103,-0.015,-0.0195,-0.0097,-0.0096,-0.0084,-0.0181,-0.0172,-0.0177,-0.0169,-0.0173,-0.0175,-0.0085,0,0.0195,0.0159,0.0156,0.0095,0.007,0.0057,0.0017,-0.0011,-0.0006,-0.0013,-0.007,-0.0088,-0.0134,-0.0128,-0.0203,-0.0184,-0.0227,-0.022,-0.0119,-0.0116,-0.0133,-0.0193,-0.0185,-0.009,-0.0091,-0.0092,-0.0093,0,0.0142,0.0137,0.0059,0.0033,0.0016,-0.0021,-0.007,-0.0096,-0.012,-0.0104,-0.0164,-0.0149,-0.0257,-0.0231,-0.0313,-0.0294,-0.028,-0.0264,-0.0258,-0.0249,-0.0126,-0.0052,-0.0105,-0.0104,-0.0103,-0.0103,-0.0102,0,0.0113,0.0052,-0.001,-0.0033,-0.0053,-0.0096,-0.0112,-0.0135,-0.0115,-0.0154,-0.0101,-0.0223,-0.0205,-0.0271,-0.0278,-0.0278,-0.0303,-0.0269,-0.0255,-0.0248,-0.0241,-0.0229,-0.0346,-0.0346,-0.0346,-0.0346,-0.0347,0,0.0065,0.0037,-0.0025,-0.0039,-0.0065,-0.0108,-0.0115,-0.0125,-0.0118,-0.008,-0.0145,-0.0117,-0.0215,-0.0224,-0.0267,-0.0288,-0.0291,-0.0317,-0.0262,-0.0264,-0.0256,-0.0241,-0.0231,-0.0343,-0.0344,-0.0344,-0.0345,0,0.012,0.0044,0.0017,-0.0046,-0.006,-0.006,-0.004,-0.0016,-0.0039,0.0021,0.0022,-0.0014,-0.0056,-0.0125,-0.0178,-0.0227,-0.0261,-0.0263,-0.0231,-0.0165,-0.0185,-0.0179,-0.024,-0.024,-0.024,-0.024,-0.024,0,0.0158,0.0128,0.0064,0.0064,0.0051,0.0044,0.0071,0.0048,0.0083,0.009,0.0133,0.01,0.0062,0.0001,-0.0108,-0.0188,-0.0215,-0.021,-0.029,-0.0254,-0.0192,-0.0186,-0.0181,-0.0239,-0.0239,-0.0239,-0.0239,0,0.0248,0.02,0.0191,0.0185,0.0183,0.0218,0.0228,0.0265,0.0234,0.0248,0.0237,0.0172,0.0134,0.0017,-0.0049,-0.0115,-0.0217,-0.0209,-0.021,-0.0285,-0.0252,-0.0191,-0.0185,-0.0239,-0.0239,-0.0239,-0.0239,0,0.0306,0.0327,0.0259,0.0276,0.0303,0.0321,0.0338,0.0335,0.0347,0.0325,0.0327,0.024,0.0184,0.0061,-0.0001,-0.008,-0.011,-0.0138,-0.0144,-0.0146,-0.0182,-0.013,-0.0072,0,0,0,0,0,0.0323,0.032,0.0349,0.0318,0.0378,0.0365,0.0403,0.0402,0.0383,0.0395,0.0346,0.0295,0.0165,0.0106,0.0028,-0.0004,-0.0124,-0.0098,-0.0159,-0.0235,-0.0236,-0.0301,0,0,0,0,0,0,0.0299,0.032,0.0332,0.0347,0.0357,0.0387,0.0406,0.0406,0.0389,0.0373,0.0306,0.0272,0.0148,0.0202,0.0021,-0.0003,-0.0052,-0.0158,-0.016,-0.0235,-0.0235,-0.0236,-0.0303,0,0,0,0,0]}]]